Regional Weather Roundup
Issued by NWS Little Rock, AR

Home | Current Version | Previous Version | Graphics & Text | Print | Product List | Glossary On
Versions: 1 2 3 4 5 6 7 8 9 10 11 12 13 14 15 16 17 18 19 20 21 22 23 24 25 26 27 28 29 30 31 32 33 34 35 36 37 38 39 40 41 42 43 44 45 46 47 48 49 50
000
ASUS44 KLZK 220505
RWRLZK

WEATHER ROUNDUP FOR ARKANSAS
NATIONAL WEATHER SERVICE LITTLE ROCK AR
1200 AM CDT MON SEP 22 2014

NOTE: "FAIR" INDICATES FEW OR NO CLOUDS BELOW 12,000 FEET WITH NO
SIGNIFICANT WEATHER AND/OR OBSTRUCTIONS TO VISIBILITY.

ARZ001-003-010-029-220600-
NORTHWEST ARKANSAS

CITY           SKY/WX    TMP DP  RH WIND       PRES   REMARKS
FAYETTEVILLE   CLEAR     53  53 100 CALM      30.20S
FORT SMITH     CLEAR     64  53  67 CALM      30.16R
HARRISON       CLEAR     59  50  72 NW5       30.21R
BENTONVILLE    CLEAR     61  52  72 NE5       30.22S
ROGERS         CLEAR     59  51  75 NE5       30.22S
SILOAM SPGS    CLEAR     61  46  59 NE6       30.22S
HIGHFILL       CLEAR     59  51  75 N6        30.21S
$$

ARZ004-005-016-220600-
NORTH CENTRAL ARKANSAS

CITY           SKY/WX    TMP DP  RH WIND       PRES   REMARKS
BATESVILLE     CLEAR     66  48  52 N6        30.14R
FLIPPIN        CLEAR     64  46  52 N6        30.18S
MTN HOME       CLEAR     63  49  60 VRB5      30.18R
$$

ARZ040-041-220600-
WEST CENTRAL ARKANSAS

CITY           SKY/WX    TMP DP  RH WIND       PRES   REMARKS
MENA           CLEAR     72  59  64 CALM      30.16S
MOUNT IDA      CLEAR     68  63  84 CALM      30.13R
$$

ARZ009-017-025-026-028-220600-
NORTHEAST ARKANSAS

CITY           SKY/WX    TMP DP  RH WIND       PRES   REMARKS
CORNING          N/A     61  52  72 N6        30.14R
JONESBORO      CLEAR     68  50  52 N7        30.12R
NEWPORT        CLEAR     60  53  77 NW8       30.14R
WALNUT RIDGE   CLEAR     59  37  44 N7        30.13R
BLYTHEVILLE    CLEAR     58  56  93 N5        30.11R
$$

ARZ022-023-033-042-044-220600-
CENTRAL ARKANSAS

CITY           SKY/WX    TMP DP  RH WIND       PRES   REMARKS
LITTLE ROCK    PTCLDY    70  50  49 N9        30.13R
N LITTLE ROCK  PTCLDY    69  54  58 N8        30.13R
JACKSONVILLE   PTCLDY    68  52  55 NW3       30.13R
SEARCY         CLEAR     66  50  56 N7        30.13R
HOT SPRINGS    CLEAR     75  51  43 NE10G18   30.12S
RUSSELLVILLE   PTCLDY    60  56  86 CALM      30.15R
$$

ARZ036-220600-
EAST ARKANSAS

CITY           SKY/WX    TMP DP  RH WIND       PRES   REMARKS
WEST MEMPHIS   CLEAR     64  54  69 N7        30.08R
$$

ARZ050-053-066-070-073-220600-
SOUTHWEST ARKANSAS

CITY           SKY/WX    TMP DP  RH WIND       PRES   REMARKS
ARKADELPHIA    FAIR      76  68  76 NE9       30.11R
CAMDEN         PTCLDY    73  68  83 N7        30.08R
TEXARKANA      CLOUDY    76  72  87 NE7       30.08F
EL DORADO      CLEAR     74  70  87 N5        30.08R
DE QUEEN       CLOUDY    75  66  73 NE6       30.09R
$$

ARZ056-057-069-220600-
SOUTHEAST ARKANSAS

CITY           SKY/WX    TMP DP  RH WIND       PRES   REMARKS
PINE BLUFF     PTCLDY    72  55  55 N9        30.09S
STUTTGART      CLEAR     64  54  68 N8        30.11S
MONTICELLO     PTCLDY    77  67  71 VRB7      30.07R

$$





USA.gov is the U.S. government's official web portal to all federal, state and local government web resources and services.